#timestamp,LO_Frequency,Hit,StdDev 
1544353215.4,286046998.4,P
1544353235.3,286047000.8,N
1544353255.1,286046996.7,P
1544353275.9,286046997.1,N
1544353295.7,286046996.5,N
1544353315.5,286046999.0,N
1544353335.4,286047000.8,N
1544353355.2,286047000.3,N
1544353375.0,286047002.8,N
1544353376.0,286047002.8,N
1544353395.8,286047002.2,N
1544353415.6,286046999.8,N
1544353435.5,286047002.0,N
1544353455.3,286047000.5,N
1544353475.1,286047001.2,N
1544353495.9,286047000.8,N
1544353515.7,286047000.4,N
1544353535.6,286047002.8,N
1544353555.4,286046998.5,N
1544353575.2,286047002.4,N
1544353595.1,286047001.9,N
1544353596.0,286047001.9,N
1544353615.8,286047000.4,N
1544353635.6,286046999.5,N
1544353655.5,286046996.6,N
1544353675.3,286046998.6,N
1544353695.2,286046999.2,N
1544353715.9,286046999.4,N
1544353735.7,286046998.8,N
1544353755.6,286046998.5,N
1544353775.4,286047001.6,N
1544353795.2,286047002.6,N
1544353815.1,286046999.9,N
1544353816.0,286046999.9,N
1544353835.8,286046999.8,N
1544353855.7,286046999.8,N
1544353875.5,286047000.5,N
1544353895.3,286047002.1,N
1544353915.2,286047002.7,N
1544353935.0,286047000.3,N
1544353935.9,286047000.3,N
1544353955.8,286047002.4,N
1544353975.6,286047002.3,N
1544353995.4,286047003.4,N
1544354015.3,286047004.0,N
1544354035.1,286047002.1,N
1544354055.8,286047000.2,N
1544354075.7,286047001.3,N
1544354095.5,286047002.2,N
1544354115.4,286047002.1,N
1544354135.2,286047002.4,N
1544354155.0,286047004.2,N
1544354155.9,286047004.2,N
1544354175.8,286047002.8,N
1544354195.6,286047001.8,N
1544354215.4,286047003.2,N
1544354235.3,286046999.9,N
1544354255.1,286047000.7,N
1544354275.9,286047000.8,N
1544354295.7,286047000.5,N
1544354315.5,286047000.3,N
1544354335.4,286047000.0,N
1544354355.2,286047002.3,N
1544354375.1,286047002.1,N
1544354376.0,286047002.1,N
1544354395.8,286047000.2,N
1544354415.6,286047000.9,N
1544354435.5,286046998.2,N
1544354455.3,286047000.7,N
1544354475.2,286047000.6,N
1544354495.9,286046999.9,N
1544354515.7,286046998.6,N
1544354535.6,286047001.1,N
1544354555.4,286046998.8,N
1544354575.2,286046998.6,N
1544354595.1,286046998.7,N
1544354596.0,286046998.7,N
1544354615.8,286046996.5,N
1544354635.7,286047001.2,N
1544354655.5,286046998.3,N
1544354675.3,286047000.5,N
1544354695.2,286047002.7,N
1544354715.0,286046999.7,N
1544354715.9,286046999.7,N
1544354735.7,286047001.1,N
1544354755.6,286046998.6,N
1544354775.4,286047002.6,N
1544354795.3,286047002.1,N
1544354815.1,286047000.6,N
1544354835.8,286046998.1,N
1544354855.7,286047000.3,N
1544354875.5,286047000.4,N
1544354895.4,286047002.2,N
1544354915.2,286047005.3,Y
1544354935.0,286047005.8,P
1544354935.9,286047005.8,N
1544354955.8,286047005.7,N
1544354975.6,286047002.2,N
1544354995.4,286047004.3,N
1544355015.3,286047002.5,N
1544355035.1,286047000.7,N
1544355055.9,286047002.6,N
1544355075.7,286047001.0,N
1544355095.5,286047001.2,N
1544355115.4,286046998.4,N
1544355135.2,286046997.1,N
1544355155.0,286046997.5,N
1544355155.9,286046997.5,N
1544355175.8,286046999.0,N
1544355195.6,286047002.6,N
1544355215.5,286046999.8,N
1544355235.3,286046998.5,N
1544355255.1,286046999.2,N
1544355275.9,286046999.0,N
1544355295.7,286046999.6,N
1544355315.5,286047000.8,N
1544355335.4,286047000.4,N
1544355355.2,286047004.4,N
1544355375.1,286047001.5,N
1544355376.0,286047001.5,N
1544355395.8,286047001.8,N
1544355415.6,286047002.5,N
1544355435.5,286047002.0,N
1544355455.3,286047002.7,N
1544355475.2,286047001.6,N
1544355495.9,286047001.8,N
1544355515.7,286047002.5,N
1544355535.6,286047004.3,N
1544355555.4,286047001.7,N
1544355575.2,286047003.9,N
1544355595.1,286047002.2,N
1544355596.0,286047002.2,N
1544355615.8,286046999.9,N
1544355635.7,286047000.4,N
1544355655.5,286047001.0,N
1544355675.3,286047002.8,N
1544355695.2,286047002.7,N
1544355715.0,286047000.4,N
1544355715.9,286047000.4,N
1544355735.7,286046998.8,N
1544355755.6,286046999.6,N
1544355775.4,286046996.5,N
1544355795.3,286046997.8,N
1544355815.1,286046993.7,Y
1544355835.8,286046993.6,P
1544355855.7,286046995.1,N
1544355875.5,286046999.5,N
1544355895.4,286046999.2,N
1544355915.2,286046999.6,N
1544355935.0,286046995.6,N
1544355935.9,286046995.6,N
1544355955.8,286046993.3,N
1544355975.6,286046992.4,N
1544355995.4,286046994.4,N
1544356015.3,286046990.9,Y
1544356035.1,286046995.9,P
1544356055.9,286046995.0,P
1544356075.7,286046995.1,P
1544356095.5,286046996.2,Y
1544356115.4,286047004.0,P
1544356135.2,286047000.1,N
1544356155.0,286047000.1,N
1544356156.0,286047000.1,N
1544356175.8,286047002.1,N
1544356195.6,286047004.3,N
1544356215.5,286047001.7,N
1544356235.3,286047005.3,N
1544356255.1,286047005.4,N
1544356275.9,286047007.3,N
1544356295.7,286047006.4,N
1544356315.6,286047004.9,N
1544356335.4,286047006.6,N
1544356355.2,286047005.7,N
1544356375.1,286047003.2,N
1544356376.0,286047003.2,N
1544356395.8,286047003.3,N
1544356415.7,286047011.9,Y
1544356435.5,286047003.6,P
1544356455.3,286047003.4,P
1544356475.2,286047003.6,P
1544356495.9,286047003.0,Y
1544356515.7,286047001.8,P
1544356535.6,286047001.7,N
1544356555.4,286046999.8,N
1544356575.3,286047001.0,N
1544356595.1,286046998.5,N
1544356596.0,286046998.5,N
1544356615.8,286047002.4,N
1544356635.7,286047000.4,N
1544356655.5,286046999.7,N
1544356675.3,286047000.4,N
1544356695.2,286046999.7,N
1544356715.0,286046999.3,N
1544356715.9,286046999.3,N
1544356735.8,286046996.9,N
1544356755.6,286046997.5,N
1544356775.4,286046997.4,N
1544356795.3,286046997.6,N
